Location: Gull Harbor
(47.1000°N, 122.9000°W)
Time: 11:45:06
(UTC-08:00)

OTV 5 (USA 277) - Visible Passes

Search period start: 18 November 2017 00:00
Search period end: 28 November 2017 00:00
Orbit: 404 x 417 km, 43.0° (Epoch: 07 September)

Date Brightness Start Highest point End Pass type
(mag) Time Alt. Az. Time Alt. Az. Time Alt. Az.
18 Nov ? 05:10:01 25° SSE 05:10:01 25° SSE 05:12:04 10° SE visible
19 Nov ? 05:54:13 13° SW 05:54:58 14° SSW 05:56:42 10° S visible
20 Nov ? 05:05:42 13° S 05:05:42 13° S 05:06:24 10° SSE visible
